CST,Max TemperatureF,Mean TemperatureF,Min TemperatureF,Max Dew PointF,MeanDew PointF,Min DewpointF,Max Humidity, Mean Humidity, Min Humidity, Max Sea Level PressureIn, Mean Sea Level PressureIn, Min Sea Level PressureIn, Max VisibilityMiles, Mean VisibilityMiles, Min VisibilityMiles, Max Wind SpeedMPH, Mean Wind SpeedMPH, Max Gust SpeedMPH,PrecipitationIn, CloudCover, Events, WindDirDegrees
2013-1-1,19,14,8,9,4,1,79,66,49,30.27,30.21,30.15,10,10,10,10,7,,0.00,1,,314
2013-1-2,32,18,5,21,11,0,85,70,50,30.20,30.12,30.06,10,10,10,10,4,16,0.00,3,,222
2013-1-3,28,20,12,25,17,7,86,75,59,30.31,30.21,30.10,10,9,5,20,12,25,0.00,6,,273
2013-1-4,35,22,10,25,15,5,86,76,56,30.28,30.22,30.17,10,10,10,17,9,22,0.00,0,,240
2013-1-5,35,25,15,34,24,9,93,83,70,30.22,30.09,29.94,10,9,2,17,5,22,0.02,4,,225
2013-1-6,35,25,12,30,16,10,92,77,69,30.32,30.16,29.94,10,10,7,23,15,28,0.00,2,,273
2013-1-7,41,26,12,28,21,9,93,73,53,30.30,30.18,30.07,10,10,7,9,4,23,0.00,0,,198
2013-1-8,44,32,21,32,27,14,93,73,57,30.12,30.06,30.01,10,9,5,9,2,17,0.00,1,,182
2013-1-9,46,35,24,34,27,21,87,73,49,30.49,30.30,30.01,10,10,10,22,11,30,0.00,0,,257
2013-1-10,44,32,21,37,28,18,100,81,53,30.48,30.21,29.82,10,8,0,18,7,25,0.51,4,,95
2013-1-11,51,45,39,48,44,37,100,90,82,29.81,29.70,29.65,10,5,0,12,6,18,0.26,5,,176
2013-1-12,51,38,24,46,29,18,87,74,64,30.02,29.89,29.66,10,9,2,23,10,30,0.00,4,,273
2013-1-13,24,17,10,19,9,3,86,71,62,30.26,30.08,29.92,10,10,3,18,12,23,0.00,6,,292
2013-1-14,26,16,6,10,6,1,92,70,47,30.46,30.41,30.27,10,10,10,10,5,,0.00,0,,276
2013-1-15,30,18,6,16,8,1,92,75,51,30.42,30.32,30.12,10,10,10,5,0,,0.00,0,,220
2013-1-16,35,22,8,28,18,1,85,72,56,30.11,29.98,29.85,10,10,10,17,4,51,0.00,3,,239
2013-1-17,35,26,17,30,15,10,81,64,44,30.41,30.32,30.09,10,10,10,15,9,20,0.00,1,,308
2013-1-18,46,32,17,34,25,12,86,70,57,30.42,30.14,29.91,10,10,10,13,5,22,0.00,1,,200
2013-1-19,50,44,33,36,32,16,75,69,48,30.03,29.87,29.76,10,10,10,33,10,51,0.00,1,,251
2013-1-20,19,14,10,5,3,0,67,56,46,30.34,30.26,30.09,10,10,10,29,17,36,0.00,4,,300
2013-1-21,14,8,3,5,-5,-9,78,55,41,30.30,30.24,30.18,10,10,8,25,18,32,0.00,2,,292
2013-1-22,14,7,0,0,-5,-9,72,57,45,30.40,30.34,30.29,10,10,10,20,12,23,0.00,2,,289
2013-1-23,26,18,10,12,5,0,73,60,51,30.40,30.23,30.11,10,9,2,23,7,30,0.00,6,,277
2013-1-24,21,12,3,7,0,-6,67,54,42,30.63,30.50,30.31,10,10,10,14,10,20,0.00,0,,70
2013-1-25,35,26,17,21,13,3,86,63,46,30.30,30.11,29.97,10,9,2,25,11,31,0.00,5,,256
2013-1-26,28,18,8,16,9,3,79,60,43,30.40,30.33,30.22,10,10,9,14,8,,0.00,2,,48
2013-1-27,39,32,26,39,25,12,100,78,55,30.32,30.09,29.84,10,6,2,15,7,21,0.37,6,,142
2013-1-28,48,44,39,48,41,36,100,92,81,29.95,29.86,29.72,10,3,0,13,7,18,0.11,8,,175
2013-1-29,60,50,39,59,51,37,100,93,87,29.71,29.56,29.42,10,6,0,16,6,20,0.46,6,,237
2013-1-30,37,27,17,36,27,7,93,86,63,29.71,29.43,29.27,10,7,2,29,14,34,0.28,8,,337
2013-1-31,17,9,1,10,2,-8,73,68,57,30.23,29.94,29.72,10,10,6,28,20,34,0.00,5,,289